Location: St. Louis
(38.6270°N, 90.1994°W)
Time: 08:55:14
(UTC-06:00)

Vanguard 2 Rocket - Pass Details

Date: 03 December 2021
Orbit: 553 x 3325 km, 32.9° (Epoch: 23 January)

Event Time Altitude Azimuth Distance (km) Brightness Sun altitude
Rises 16:44:51 0° 215° (SW) 2,966 10.9 -1.8°
Reaches altitude 10° 16:47:13 10° 201° (SSW) 2,242 9.7 -2.2°
Maximum altitude 16:51:25 25° 146° (SE) 1,817 8.4 -2.9°
Drops below altitude 10° 16:57:27 10° 95° (E) 3,340 9.3 -4.0°
Enters shadow 17:00:55 - 86° (E) 4,512 9.9 -4.6°
Sets 17:01:52 0° 84° (E) 4,836 - -4.7°
